Location: Ferchesar
(52.6477°N, 12.4298°E)
Time: 04:22:48
(UTC+01:00)

Tiros 1 - Pass Details

Date: 03 December 2021
Orbit: 629 x 664 km, 48.4° (Epoch: 21 January)

Event Time Altitude Azimuth Distance (km) Brightness Sun altitude
Rises 21:03:55 0° 252° (WSW) 2,933 - -44.7°
Reaches altitude 10° 21:06:17 10° 247° (WSW) 2,030 - -45.1°
Maximum altitude 21:10:47 49° 173° (S) 829 - -45.7°
Drops below altitude 10° 21:15:21 10° 99° (E) 2,054 - -46.3°
Sets 21:17:45 0° 94° (E) 2,971 - -46.6°
